Hourly Data Report for October 19, 2013

All times are specified in Local Standard Time (LST). Add 1 hour to adjust for Daylight Saving Time where and when it is observed.

EMERSON AUTO
MANITOBA

49°00'00.000" N
97°14'15.000" W
242.00 m
5020881
71560
WEX

Download Data

Hourly Data (October 2013)
Hourly Data Report for October 19, 2013
Temp Definition
°C
Dew Point Temp Definition
°C
Rel Hum Definition
%
Wind Dir Definition
10's deg

Wind Spd Definition
km/h
Visibility Definition
km
Stn Press Definition
kPa
Hmdx Definition


Wind Chill Definition


Weather Definition


TIME
00:00 2.2 1.1 92 28 11   97.65     LegendNANA
01:00 1.9 0.8 92 30 17   97.64     LegendNANA
02:00 1.3 0.6 95 31 19   97.63     LegendNANA
03:00 1.5 0.5 93 30 13   97.62     LegendNANA
04:00 1.1 0.3 94 31 20   97.62     LegendNANA
05:00 1.4 0.7 95 32 22   97.64     LegendNANA
06:00 1.4 0.6 94 32 20   97.69     LegendNANA
07:00 1.3 0.6 95 32 20   97.74     LegendNANA
08:00 1.4 0.7 95 32 20   97.76     LegendNANA
09:00 2.0 1.2 94 32 19   97.80     LegendNANA
10:00 2.7 1.6 92 32 20   97.83     LegendNANA
11:00 3.0 1.6 90 31 19   97.84     LegendNANA
12:00 3.9 1.6 85 31 22   97.84     LegendNANA
13:00 4.6 1.3 79 31 19   97.82     LegendNANA
14:00 4.6 1.2 79 30 11   97.81     LegendNANA
15:00 4.7 0.7 75 30 7   97.81     LegendNANA
16:00 4.6 0.5 75 30 7   97.80     LegendNANA
17:00 4.3 0.4 76 28 4   97.82     LegendNANA
18:00 3.0 0.2 82 24 7   97.81     LegendNANA
19:00 1.2 -0.3 90 21 7   97.77     LegendNANA
20:00 2.1 -0.1 85 18 6   97.72     LegendNANA
21:00 2.0 -0.5 83 18 6   97.68     LegendNANA
22:00 2.3 -0.8 80 16 9   97.65     LegendNANA
23:00 2.0 -0.4 84 17 7   97.64     LegendNANA

Notes on Data Quality.

Legend

  • E = Estimated
  • M = Missing
  • NA = Not Available
  • ‡ = Partner data that is not subject to review by the National Climate Archives
Date modified: